Newark, NJ

11:02 AM EST on November 21, 2019 (GMT -0500)
Newark International

Weather History for KEWR - August, 2019

Change the Weather History Date:

Sunday, August 18, 2019

  Actual Average Record
Temperature  
Mean Temperature 82 °F 76 °F  
Max Temperature 90 °F 84 °F 97 °F (2002)
Min Temperature 74 °F 68 °F 52 °F (1941)
Degree Days  
Heating Degree Days 0 0  
Month to date heating degree days 0 0  
Since 1 June heating degree days 4 17  
Since 1 July heating degree days 0 0  
Cooling Degree Days 17 11  
Month to date cooling degree days 230 209  
Year to date cooling degree days 1049 907  
Since 1 June cooling degree days 964 831  
Growing Degree Days 32 (Base 50)    
Moisture  
Dew Point 73 °F    
Average Humidity 75    
Maximum Humidity 91    
Minimum Humidity 59    
Precipitation  
Precipitation T in 0.12 in 1.60 in (1955)
Month to date precipitation 4.27 2.37  
Year to date precipitation 40.05 30.04  
Snow  
Snow 0.00 in 0.00 in 0.00 in (2002)
Month to date snowfall 0.0 0.0  
Since 1 July snowfall 0.0 0.0  
Snow Depth 0.00 in    
Sea Level Pressure  
Sea Level Pressure 29.99 in    
Wind  
Wind Speed 6 mph (SSE)    
Max Wind Speed 25 mph    
Max Gust Speed 31 mph    
Visibility 10 miles    
Events Rain , Thunderstorm    
T = Trace of Precipitation, MM = Missing Value Source: NWS Daily Summary

Daily Weather History Graph

Daily Weather History Graph

Search for Another Location

Airport or City:

Astronomy

Aug. 18, 2019 Rise Set
Actual Time 6:09 AM EDT 7:50 PM EDT
Civil Twilight 5:40 AM EDT 8:19 PM EDT
Nautical Twilight 5:05 AM EDT 8:54 PM EDT
Astronomical Twilight 4:27 AM EDT 9:32 PM EDT
Moon 9:43 PM EDT (8/18) 8:53 AM EDT (8/18)
Length of Visible Light 14h 39m
Length of Day
13h 40m
Waning Gibbous, 91% of the Moon is Illuminated
Aug 18
Waning Gibbous
Aug 23
Last Quarter
Aug 30
New
Sep 5
First Quarter
Sep 14
Full

Hourly Weather History & Observations

Time (EDT) Temp. Heat Index Dew Point Humidity Pressure Visibility Wind Dir Wind Speed Gust Speed Precip Events Conditions
12:16 AM 77.0 °F - 73.0 °F 88% 29.98 in 10.0 mi SE 5.8 mph - N/A   Mostly Cloudy
12:51 AM 77.0 °F - 73.9 °F 90% 29.98 in 10.0 mi Calm Calm - N/A   Overcast
1:07 AM 77.0 °F - 73.9 °F 90% 29.98 in 10.0 mi ENE 4.6 mph - N/A   Overcast
1:48 AM 77.0 °F - 73.4 °F 89% 29.98 in 10.0 mi East 3.5 mph - N/A   Overcast
1:51 AM 78.1 °F - 73.9 °F 87% 29.99 in 10.0 mi Variable 4.6 mph - N/A   Overcast
2:51 AM 78.1 °F - 73.9 °F 87% 29.98 in 10.0 mi SSE 3.5 mph - N/A   Mostly Cloudy
3:51 AM 77.0 °F - 73.9 °F 90% 29.99 in 10.0 mi South 3.5 mph - N/A   Overcast
4:51 AM 77.0 °F - 73.9 °F 90% 29.98 in 10.0 mi NNE 4.6 mph - N/A   Mostly Cloudy
5:51 AM 77.0 °F - 73.9 °F 90% 30.00 in 10.0 mi SSE 4.6 mph - N/A   Overcast
6:51 AM 77.0 °F - 73.9 °F 90% 30.00 in 10.0 mi Calm Calm - N/A   Overcast
7:24 AM 78.1 °F - 75.0 °F 90% 30.01 in 10.0 mi Calm Calm - N/A   Mostly Cloudy
7:51 AM 78.1 °F - 75.0 °F 90% 30.03 in 10.0 mi Calm Calm - N/A   Overcast
8:51 AM 79.0 °F - 75.0 °F 88% 30.02 in 10.0 mi South 5.8 mph - N/A   Mostly Cloudy
9:21 AM 79.0 °F - 73.9 °F 84% 30.02 in 10.0 mi South 4.6 mph - N/A   Overcast
9:35 AM 80.1 °F 85.1 °F 75.0 °F 85% 30.02 in 9.0 mi East 3.5 mph - N/A   Mostly Cloudy
9:51 AM 81.0 °F 87.3 °F 75.9 °F 85% 30.01 in 9.0 mi Variable 3.5 mph - N/A   Mostly Cloudy
10:07 AM 81.0 °F 86.7 °F 75.0 °F 82% 30.02 in 9.0 mi Calm Calm - N/A   Mostly Cloudy
10:51 AM 82.9 °F 90.2 °F 75.0 °F 77% 30.02 in 10.0 mi South 4.6 mph - N/A   Mostly Cloudy
11:51 AM 86.0 °F 93.8 °F 73.9 °F 67% 30.00 in 10.0 mi SSW 4.6 mph - N/A   Mostly Cloudy
12:04 PM 87.1 °F 97.3 °F 75.9 °F 69% 29.99 in 10.0 mi South 4.6 mph - N/A   Mostly Cloudy
12:51 PM 88.0 °F 97.5 °F 75.0 °F 65% 29.99 in 10.0 mi ESE 6.9 mph - N/A   Mostly Cloudy
1:51 PM 88.0 °F 96.5 °F 73.9 °F 63% 29.99 in 10.0 mi Variable 4.6 mph - N/A   Mostly Cloudy
2:51 PM 88.0 °F 96.5 °F 73.9 °F 63% 29.97 in 10.0 mi SSE 9.2 mph - N/A   Mostly Cloudy
3:51 PM 89.1 °F 98.0 °F 73.9 °F 61% 29.96 in 10.0 mi SE 9.2 mph - N/A   Mostly Cloudy
4:42 PM 88.0 °F 97.5 °F 75.0 °F 65% 29.96 in 10.0 mi SSE 8.1 mph - N/A Thunderstorm Thunderstorm
4:51 PM 88.0 °F 97.5 °F 75.0 °F 65% 29.95 in 10.0 mi SSE 9.2 mph - N/A Thunderstorm Thunderstorm
5:51 PM 84.9 °F 91.4 °F 73.0 °F 67% 29.96 in 10.0 mi South 16.1 mph 25.3 mph N/A Thunderstorm Thunderstorm
6:51 PM 82.9 °F 88.0 °F 72.0 °F 69% 29.96 in 10.0 mi SSW 10.4 mph - 0.00 in Rain , Thunderstorm Light Thunderstorms and Rain
7:51 PM 81.0 °F 84.4 °F 70.0 °F 69% 30.00 in 10.0 mi WNW 21.9 mph 29.9 mph 0.00 in Rain Light Rain
8:51 PM 77.0 °F - 64.9 °F 66% 29.99 in 10.0 mi NNW 4.6 mph - 0.00 in   Mostly Cloudy
9:51 PM 77.0 °F - 64.9 °F 66% 30.00 in 10.0 mi ENE 4.6 mph - N/A   Mostly Cloudy
10:51 PM 73.9 °F - 64.9 °F 73% 29.99 in 10.0 mi NNE 3.5 mph - N/A   Scattered Clouds
11:51 PM 75.9 °F - 64.9 °F 69% 29.98 in 10.0 mi Calm Calm - N/A   Scattered Clouds